This is the latest recevied weather packets stored in our database for station/object WW6Q. If no packets are shown the sender has not sent any weather packets the latest 10 day(s).
| Time | Temp. | Humidity | Pressure | Rain* | Wind** | Luminosity | Snow |
|---|---|---|---|---|---|---|---|
| 1788543076 | 26.67° C | 76% | 1016.7 hPa | 0 mm | - | 320 W/m² | - |
| 1788542773 | 26.11° C | 74% | 1016.5 hPa | 0 mm | - | 411 W/m² | - |
| 1788542472 | 26.11° C | 76% | 1016.6 hPa | 0 mm | - | 444 W/m² | - |
| 1788542167 | 25.56° C | 77% | 1016.6 hPa | 0 mm | - | 454 W/m² | - |
| 1788541863 | 25.56° C | 75% | 1016.5 hPa | 0 mm | - | 377 W/m² | - |
| 1788541558 | 25.56° C | 76% | 1016.5 hPa | 0 mm | - | 261 W/m² | - |
| 1788541254 | 25.56° C | 75% | 1016.3 hPa | 0 mm | - | 378 W/m² | - |
| 1788540953 | 25° C | 77% | 1016.5 hPa | 0 mm | - | 357 W/m² | - |
| 1788540652 | 25° C | 79% | 1016.4 hPa | 0 mm | - | 251 W/m² | - |
| 1788540347 | 25° C | 78% | 1016.5 hPa | 0 mm | - | 265 W/m² | - |
| 1788540043 | 24.44° C | 79% | 1016.5 hPa | 0 mm | - | 373 W/m² | - |
| 1788539743 | 24.44° C | 79% | 1016.4 hPa | 0 mm | - | 407 W/m² | - |
| 1788539439 | 24.44° C | 78% | 1016.5 hPa | 0 mm | - | 361 W/m² | - |
| 1788539133 | 24.44° C | 79% | 1016.9 hPa | 0 mm | - | 430 W/m² | - |
| 1788538829 | 23.89° C | 80% | 1016.8 hPa | 0 mm | - | 493 W/m² | - |
| 1788538529 | 24.44° C | 80% | 1017 hPa | 0 mm | - | 219 W/m² | - |
| 1788538235 | 23.89° C | 80% | 1017.3 hPa | 0 mm | - | 274 W/m² | - |
| 1788537919 | 24.44° C | 79% | 1017.3 hPa | 0 mm | - | 456 W/m² | - |
| 1788537616 | 23.89° C | 80% | 1017.2 hPa | 0 mm | - | 525 W/m² | - |
| 1788537315 | 23.89° C | 81% | 1017.3 hPa | 0 mm | - | 483 W/m² | - |
| 1788537015 | 23.89° C | 82% | 1017.7 hPa | 0 mm | - | 418 W/m² | - |
| 1788536708 | 23.33° C | 83% | 1017.8 hPa | 0 mm | - | 252 W/m² | - |
| 1788536403 | 23.33° C | 82% | 1017.9 hPa | 0 mm | - | 192 W/m² | - |
| 1788536098 | 23.33° C | 83% | 1018.2 hPa | 0 mm | - | 225 W/m² | - |
| 1788535794 | 23.33° C | 84% | 1017.8 hPa | 0 mm | - | 143 W/m² | - |
* Rain latest hour (hover to see other rain measurements)
** Current wind speed in m/s (hover to see current wind gust speed)